Regional Weather Roundup
Issued by NWS

Home | Current Version | Previous Version | Text Only | Print | Product List | Glossary On
Versions: 1 2 3 4 5 6 7 8 9 10 11 12 13 14 15 16 17 18 19 20 21 22 23 24 25 26 27 28 29 30 31 32 33 34 35 36 37 38 39 40 41 42 43 44 45 46 47 48 49 50
000
ASUS45 KBOI 302010
RWRID

IDAHO REGIONAL WEATHER ROUNDUP
NATIONAL WEATHER SERVICE BOISE ID
200 PM MDT SAT JUL 30 2016

NOTE: "FAIR" INDICATES FEW OR NO CLOUDS BELOW 12000 FEET
WITH NO SIGNIFICANT WEATHER AND/OR OBSTRUCTIONS TO VISIBILITY

IDZ012-014-302100-
SOUTHWEST IDAHO


CITY           SKY/WX    TMP DP  RH WIND       PRES   REMARKS
BOISE          SUNNY     95  44  17 NW9       29.83F HX  91
CALDWELL       SUNNY     95  49  20 NW7       29.80F HX  92
MOUNTAIN HOME  MOSUNNY   97  44  16 N5        29.82F HX  93
$$

IDZ016-017-302100-
SOUTHCENTRAL IDAHO


CITY           SKY/WX    TMP DP  RH WIND       PRES   REMARKS
BURLEY         MOSUNNY   89  48  24 NW5       29.90F
JEROME         SUNNY     91  44  19 W6        29.91F
TWIN FALLS     SUNNY     93  40  15 NW10      29.91F
$$

IDZ019>023-302100-
SOUTHEAST IDAHO


CITY           SKY/WX    TMP DP  RH WIND       PRES   REMARKS
IDAHO FALLS    PTSUNNY   86  45  23 SW18      29.97F
POCATELLO      MOSUNNY   94  40  15 S14G23    29.95F HX  90
REXBURG        MOSUNNY   86  42  21 SW15G23   29.97S
$$

IDZ006-010-011-018-031-032-302100-
CENTRAL IDAHO MOUNTAINS


CITY           SKY/WX    TMP DP  RH WIND       PRES   REMARKS
MCCALL         SUNNY     86  34  15 SW14G21   29.96F
HAILEY         MOSUNNY   84  45  24 NW12      30.02R
STANLEY          N/A     84  39  20 NW12G17   30.07F
SALMON         SUNNY     90  46  22 N6        29.80F
CHALLIS        MOSUNNY   92  36  14 W16G25    29.91F
$$

IDZ002-004-006-007-026-302100-
NORTHERN IDAHO


CITY           SKY/WX    TMP DP  RH WIND       PRES   REMARKS
LEWISTON       SUNNY     93  47  20 VRB3      29.74F
LOWELL           N/A     94  50  22 VRB6      29.72F HX  91
COEUR D`ALENE  SUNNY     88  48  25 SW15G25   29.75S
MULLAN PASS    SUNNY     71  43  36 SW9G17    30.00F
$$



USA.gov is the U.S. government's official web portal to all federal, state and local government web resources and services.